Lubbock, TX

3:18 PM CST on November 16, 2019 (GMT -0600)
Lubbock International

Weather History for KLBB - August, 2019

Change the Weather History Date:

Friday, August 9, 2019

  Actual Average Record
Temperature  
Mean Temperature 88 °F 80 °F  
Max Temperature 100 °F 92 °F 103 °F (2011)
Min Temperature 76 °F 68 °F 51 °F (1946)
Degree Days  
Heating Degree Days 0 0  
Month to date heating degree days 0 0  
Since 1 June heating degree days 0 2  
Since 1 July heating degree days 0 0  
Cooling Degree Days 23 15  
Month to date cooling degree days 191 135  
Year to date cooling degree days 1298 1228  
Since 1 June cooling degree days 1088 982  
Growing Degree Days 38 (Base 50)    
Moisture  
Dew Point 59 °F    
Average Humidity 43    
Maximum Humidity 64    
Minimum Humidity 22    
Precipitation  
Precipitation T in 0.07 in 1.45 in (1977)
Month to date precipitation 0.13 0.56  
Year to date precipitation 13.58 11.72  
Snow  
Snow 0.00 in 0.00 in 0.00 in (2002)
Month to date snowfall 0.0 0.0  
Since 1 June snowfall 0.0 0.0  
Since 1 July snowfall 0.0 0.0  
Snow Depth 0.00 in    
Sea Level Pressure  
Sea Level Pressure 29.80 in    
Wind  
Wind Speed 9 mph (SSE)    
Max Wind Speed 20 mph    
Max Gust Speed 24 mph    
Visibility 10 miles    
Events      
T = Trace of Precipitation, MM = Missing Value Source: NWS Daily Summary

Daily Weather History Graph

Daily Weather History Graph

Search for Another Location

Airport or City:

Astronomy

Aug. 09, 2019 Rise Set
Actual Time 7:04 AM CDT 8:40 PM CDT
Civil Twilight 6:38 AM CDT 9:06 PM CDT
Nautical Twilight 6:06 AM CDT 9:38 PM CDT
Astronomical Twilight 5:32 AM CDT 10:12 PM CDT
Moon 4:19 PM CDT (8/9) 2:05 AM CDT (8/9)
Length of Visible Light 14h 28m
Length of Day
13h 35m
Waxing Gibbous, 70% of the Moon is Illuminated
Aug 9
Waxing Gibbous
Aug 15
Full
Aug 23
Last Quarter
Aug 30
New
Sep 5
First Quarter

Hourly Weather History & Observations

Time (CDT) Temp. Heat Index Dew Point Humidity Pressure Visibility Wind Dir Wind Speed Gust Speed Precip Events Conditions
12:53 AM 84.0 °F 83.8 °F 59.0 °F 43% 29.78 in 10.0 mi SSE 12.7 mph - N/A   Scattered Clouds
1:53 AM 82.9 °F 82.8 °F 59.0 °F 44% 29.78 in 10.0 mi SSE 8.1 mph - N/A   Scattered Clouds
2:53 AM 82.0 °F 82.4 °F 60.1 °F 47% 29.77 in 10.0 mi South 9.2 mph - N/A   Mostly Cloudy
3:53 AM 82.0 °F 82.1 °F 59.0 °F 45% 29.77 in 10.0 mi SSW 9.2 mph - N/A   Mostly Cloudy
4:53 AM 82.0 °F 82.1 °F 59.0 °F 45% 29.78 in 10.0 mi SW 6.9 mph - N/A   Mostly Cloudy
5:53 AM 78.1 °F - 59.0 °F 52% 29.81 in 10.0 mi Calm Calm - N/A   Mostly Cloudy
6:53 AM 75.9 °F - 62.1 °F 62% 29.85 in 10.0 mi East 4.6 mph - N/A   Overcast
7:53 AM 77.0 °F - 63.0 °F 62% 29.87 in 9.0 mi NE 3.5 mph - 0.00 in   Mostly Cloudy
8:53 AM 79.0 °F - 64.9 °F 62% 29.87 in 10.0 mi SSE 4.6 mph - N/A   Scattered Clouds
9:53 AM 84.0 °F 84.9 °F 63.0 °F 49% 29.86 in 10.0 mi SW 8.1 mph - N/A   Partly Cloudy
10:53 AM 88.0 °F 88.4 °F 62.1 °F 42% 29.86 in 10.0 mi SSW 10.4 mph - N/A   Partly Cloudy
11:53 AM 91.9 °F 92.5 °F 62.1 °F 37% 29.85 in 10.0 mi South 10.4 mph - N/A   Partly Cloudy
12:53 PM 95.0 °F 94.4 °F 59.0 °F 30% 29.83 in 10.0 mi SE 11.5 mph - N/A   Partly Cloudy
1:53 PM 96.1 °F 96.4 °F 61.0 °F 31% 29.81 in 10.0 mi South 11.5 mph 19.6 mph N/A   Partly Cloudy
2:53 PM 97.0 °F 96.9 °F 60.1 °F 29% 29.80 in 10.0 mi SSE 13.8 mph - N/A   Scattered Clouds
3:53 PM 98.1 °F 96.4 °F 55.9 °F 24% 29.78 in 10.0 mi SSE 10.4 mph 20.7 mph N/A   Scattered Clouds
4:53 PM 99.0 °F 97.3 °F 55.0 °F 23% 29.75 in 10.0 mi South 12.7 mph - N/A   Scattered Clouds
5:53 PM 98.1 °F 96.1 °F 54.0 °F 23% 29.75 in 10.0 mi SE 13.8 mph 21.9 mph N/A   Scattered Clouds
6:53 PM 97.0 °F 95.0 °F 55.0 °F 24% 29.74 in 10.0 mi SE 11.5 mph - N/A   Scattered Clouds
7:53 PM 95.0 °F 93.4 °F 55.9 °F 27% 29.75 in 10.0 mi SSE 11.5 mph - N/A   Scattered Clouds
8:53 PM 91.0 °F 89.2 °F 55.9 °F 30% 29.77 in 10.0 mi SE 6.9 mph - N/A   Scattered Clouds
9:53 PM 87.1 °F 86.1 °F 57.9 °F 37% 29.79 in 10.0 mi SSE 8.1 mph - N/A   Scattered Clouds
10:53 PM 86.0 °F 85.4 °F 59.0 °F 40% 29.79 in 10.0 mi SSE 12.7 mph - N/A   Mostly Cloudy
11:53 PM 84.9 °F 84.2 °F 57.9 °F 40% 29.78 in 10.0 mi SSE 12.7 mph - N/A   Mostly Cloudy